STARLINK-37212, 68566

Orbit data source: Space-Track

STARLINK-37212, 68566 is a payload satellite owned by SpaceX/Seattle (US) in LEO that was launched on Thu, 02 Apr 2026 UTC via an FALCON 9 launch vehicle from the Air Force Eastern Test Range (AFETR). Payload-class satellites include a variety of spacecraft equipped with specific instruments for various scientific and technological missions. These include communications satellites like Starlink; space stations such as the ISS; scientific satellites like the Hubble; Earth observation satellites from companies like Planet Labs, Umbra, and HawkEye 360; GPS; miniature CubeSats for education and research; and military/defense satellites.

Loading next visibility...
Identifier
68566, 2026-070AA
Orbit
LEO
Country
Flag of USUS
Related business
Manufacturer
SpaceX/Seattle
Mission
Operational Commercial Communications
Bus & Motor
STARLINK V2MO, Unknown motor
Mass
575 kg wet, ~530 kg dry
Launch date (UTC)
2026-04-02 (5 months ago)
Launch vehicle
FALCON 9
Launch site
Air Force Eastern Test Range (AFETR)
Object type
Payload
Rocket body
Debris
Shape & HBR
Box + 1 Pan, 17.7 m
Radar Cross Section
41.120 m², Large (>1 m²)

Expand to show TLE details & history
Last TLE update: 10 hours ago

TLE from 10 hours ago
0 STARLINK-37212
1 68566U 26070AA  26247.03270302  .00012315  00000-0  37506-3 0  9990
2 68566  53.1574 250.3712 0001287  79.9627 280.1520 15.34397027 23910
Epoch: 2026-09-04T00:47Z
TLE epoch observation values (Epoch: 2026-09-04T00:47:05.540Z)
Latitude
-0.0001°
Longitude
-104.56431°
Altitude
463.458 km
Speed
7.636 km/s
True Right ascension
16h 41m 29s
True Declination
0° 00' 00"
Sunlit
Object was in daylight at epoch
Visualization orbit readout
Latitude
Unknown
Longitude
Unknown
Altitude
Unknown
Speed
Unknown
Apparent Right ascension
Unknown
Apparent Declination
Unknown
Sunlit
N/A
Visualization observer readout
Local Sidereal Time
02:17:10
Azimuth
Unknown
Elevation
Unknown
Doppler factor
Unknown
Orbital elements
Apogee altitude
463.85 km
Perigee altitude
462.089 km
Semi-major axis
6,841.106 km
Eccentricity
0.00013
Inclination
53.1574°
RAAN
250.3712°
Arg. of periapsis
79.9627°
True anomaly
280.13748°
Mean anomaly
280.152°
Eccentric anomaly
280.14474°
Mean motion
3.83578 °/min
Orbital period
93.85 mins
BSTAR
0.00037506
Loading maneuver chart data...
Computing Atmospheric mass density...
Loading historical data...
Loading historical data...
Loading historical data...
Loading historical data...
Loading historical data...
Loading historical data...
Loading historical data...

Documentation

Showing up to 5 results
|